Location: ?astrovice
(49.6513°N, 14.9287°E)
Time: 12:18:22
(UTC+00:00)

SL-16 R/B - Pass Details

Date: 09 April 2020
Orbit: 842 x 846 km, 71.0° (Epoch: 02 June)

Event Time Altitude Azimuth Distance (km) Brightness Sun altitude
Rises 19:44:51 0° 333° (NNW) 3,415 6.5 -18.2°
Reaches altitude 10° 19:48:23 10° 355° (N) 2,477 5.2 -18.7°
Maximum altitude 19:51:45 16° 32° (NNE) 2,093 4.3 -19.1°
Drops below altitude 10° 19:55:07 10° 68° (ENE) 2,473 4.4 -19.5°
Enters shadow 19:55:08 10° 69° (ENE) 2,477 4.4 -19.5°
